FW6531 Weather Reports


Display with metric or nautical units.
time (UTC)temp
F
wind
direction
speed
MPH
gust
MPH
rain 1hr
in
rain 24hr
in
rain mn
in
humidity
%
barometer
mb
20240518035521 54 149 0.0 2.0 0.00 0.00 0.00 91 1016.9
20240518035023 54 149 0.0 2.0 0.00 0.00 0.00 91 1016.8
20240518034528 54 149 0.0 0.0 0.00 0.00 0.00 91 1016.8
20240518034023 54 149 0.0 0.0 0.00 0.00 0.00 91 1016.8
20240518033519 54 149 0.0 0.0 0.00 0.00 0.00 91 1016.8
20240518033030 54 149 0.0 0.0 0.00 0.00 0.00 91 1016.8
20240518032521 54 149 0.0 0.0 0.00 0.00 0.00 91 1016.8
20240518032019 54 149 0.0 0.0 0.00 0.00 0.00 91 1016.7
20240518031519 54 149 0.0 0.0 0.00 0.00 0.00 91 1016.8
20240518031019 54 149 0.0 0.0 0.00 0.00 0.00 91 1016.8
20240518030520 54 149 0.0 0.0 0.00 0.00 0.00 91 1016.9
20240518030019 54 149 0.0 0.0 0.00 0.00 0.00 91 1016.9
20240518025519 54 149 0.0 0.0 0.00 0.00 0.00 91 1016.9
20240518025022 54 149 0.0 0.0 0.00 0.00 0.00 91 1016.8
20240518024518 54 149 0.0 0.0 0.00 0.00 0.00 91 1016.8
20240518024018 54 149 0.0 0.0 0.00 0.00 0.00 91 1016.9
20240518023518 54 149 0.0 0.0 0.00 0.00 0.00 90 1016.8
20240518023019 54 149 0.0 0.0 0.00 0.00 0.00 90 1016.8
20240518022517 54 149 0.0 0.0 0.00 0.00 0.00 90 1016.8
20240518022018 54 149 0.0 0.0 0.00 0.00 0.00 90 1016.8
20240518021518 54 149 0.0 0.0 0.00 0.00 0.00 90 1016.9
20240518021018 54 149 0.0 0.0 0.00 0.00 0.00 90 1016.9
20240518020521 54 149 0.0 0.0 0.00 0.00 0.00 89 1016.9
20240518020017 54 149 0.0 0.0 0.00 0.00 0.00 90 1017.0
20240518015516 54 149 0.0 0.0 0.00 0.00 0.00 90 1017.0
20240518015017 54 149 0.0 0.0 0.00 0.00 0.00 90 1017.1
20240518014519 54 149 0.0 0.0 0.00 0.00 0.00 90 1017.0
20240518014015 54 149 0.0 0.0 0.00 0.00 0.00 89 1017.0
20240518013516 54 149 0.0 0.0 0.00 0.00 0.00 90 1017.0
20240518013016 54 149 0.0 0.0 0.00 0.00 0.00 90 1016.9
20240518012515 54 149 0.0 0.0 0.00 0.00 0.00 90 1016.9
20240518012015 54 149 0.0 0.0 0.00 0.00 0.00 90 1016.9
20240518011515 54 149 0.0 0.0 0.00 0.00 0.00 90 1016.7
20240518011015 54 149 0.0 1.0 0.00 0.00 0.00 89 1016.5
20240518010514 54 149 0.0 1.0 0.00 0.00 0.00 90 1016.6
20240518010014 54 149 0.0 1.0 0.00 0.00 0.00 89 1016.5
20240518005514 55 149 0.0 0.0 0.00 0.00 0.00 89 1016.7
20240518005014 55 149 0.0 0.0 0.00 0.00 0.00 89 1016.6
20240518004514 55 149 0.0 0.0 0.00 0.00 0.00 88 1016.6
20240518004020 55 149 0.0 0.0 0.00 0.00 0.00 88 1016.6
20240518003515 55 149 0.0 0.0 0.00 0.00 0.00 88 1016.8
20240518003014 55 149 0.0 1.0 0.00 0.00 0.00 88 1016.8
20240518002513 55 149 0.0 1.0 0.00 0.00 0.00 87 1016.6
20240518002013 55 149 0.0 1.0 0.00 0.00 0.00 87 1016.4
20240518001519 55 149 0.0 2.0 0.00 0.00 0.00 87 1016.4
20240518001012 55 149 0.0 2.0 0.00 0.00 0.00 87 1016.3
20240518000514 55 149 0.0 0.0 0.00 0.00 0.00 87 1016.3
20240518000012 55 149 0.0 0.0 0.00 0.00 0.00 87 1016.4
20240517235512 55 149 0.0 0.0 0.00 0.00 0.00 87 1016.3
20240517235016 55 149 0.0 0.0 0.00 0.00 0.00 87 1016.3
20240517234511 56 149 0.0 0.0 0.00 0.00 0.00 87 1016.2
20240517234012 56 149 0.0 0.0 0.00 0.00 0.00 86 1016.4
20240517233512 55 149 0.0 1.0 0.00 0.00 0.00 86 1016.4
20240517233013 56 149 0.0 1.0 0.00 0.00 0.00 86 1016.5
20240517232510 56 149 0.0 1.0 0.00 0.00 0.00 86 1016.5
20240517232010 55 149 0.0 2.0 0.00 0.00 0.00 86 1016.5
20240517231510 56 149 0.0 2.0 0.00 0.00 0.00 87 1016.6
20240517231111 56 149 0.0 1.0 0.00 0.00 0.00 87 1016.6
20240517230510 55 149 0.0 2.0 0.00 0.00 0.00 87 1016.5
20240517230009 55 149 0.0 2.0 0.00 0.00 0.00 87 1016.4
20240517225510 55 150 0.0 2.0 0.00 0.00 0.00 87 1016.3
20240517225009 55 149 0.0 2.0 0.00 0.00 0.00 86 1016.3
20240517224510 55 150 0.0 2.0 0.00 0.00 0.00 87 1016.3
20240517224009 55 149 0.0 3.0 0.00 0.00 0.00 87 1016.4
20240517223509 55 148 0.0 3.0 0.00 0.00 0.00 87 1016.4
20240517223009 55 150 1.0 3.0 0.00 0.00 0.00 87 1016.4
20240517222508 55 152 1.0 5.0 0.00 0.00 0.00 89 1016.4
20240517222010 55 151 1.0 5.0 0.00 0.00 0.00 88 1016.4
20240517221508 55 138 2.0 4.0 0.00 0.00 0.00 88 1016.4
20240517221008 55 170 1.0 4.0 0.00 0.00 0.00 88 1016.4
20240517220509 55 158 2.0 5.0 0.00 0.00 0.00 87 1016.6
20240517220008 55 170 1.0 5.0 0.00 0.00 0.00 87 1016.5
20240517215507 55 118 1.0 4.0 0.00 0.00 0.00 88 1016.7
20240517215011 55 141 1.0 6.0 0.00 0.00 0.00 88 1016.8
20240517214508 55 150 2.0 7.0 0.00 0.00 0.00 87 1016.6
20240517214007 55 98 1.0 8.0 0.00 0.00 0.00 87 1016.6
20240517213513 55 131 3.0 8.0 0.00 0.00 0.00 87 1016.7
20240517213007 55 151 1.0 7.0 0.00 0.00 0.00 87 1016.6
20240517212506 55 141 2.0 7.0 0.00 0.00 0.00 87 1016.8
20240517212107 55 147 3.0 6.0 0.00 0.00 0.00 86 1016.7
20240517211507 55 134 3.0 6.0 0.00 0.00 0.00 86 1016.5
20240517211005 55 119 2.0 6.0 0.00 0.00 0.00 85 1016.5
20240517210508 56 56 2.0 6.0 0.00 0.00 0.00 85 1016.6
20240517210005 56 133 2.0 7.0 0.00 0.00 0.00 85 1016.6
20240517205508 56 152 2.0 8.0 0.00 0.00 0.00 83 1016.7
20240517205004 56 151 3.0 8.0 0.00 0.00 0.00 83 1016.7
20240517204504 57 159 2.0 6.0 0.00 0.00 0.00 81 1016.7
20240517204004 57 105 2.0 6.0 0.00 0.00 0.00 81 1016.6
20240517203508 57 122 1.0 6.0 0.00 0.00 0.00 81 1016.5
20240517203011 56 65 1.0 7.0 0.00 0.00 0.00 81 1016.4
20240517202503 57 142 2.0 9.0 0.00 0.00 0.00 81 1016.3
20240517202003 57 183 1.0 7.0 0.00 0.00 0.00 81 1016.4
20240517201507 57 153 3.0 7.0 0.00 0.00 0.00 80 1016.4
20240517201002 57 168 2.0 5.0 0.00 0.00 0.00 80 1016.4
20240517200503 57 26 1.0 7.0 0.00 0.00 0.00 81 1016.4
20240517200004 58 34 1.0 11.0 0.00 0.00 0.00 80 1016.3
20240517195502 59 114 2.0 11.0 0.00 0.00 0.00 81 1016.3
20240517195001 58 59 4.0 8.0 0.00 0.00 0.00 81 1016.4
20240517194501 57 107 2.0 8.0 0.00 0.00 0.00 82 1016.4
20240517194002 58 127 4.0 9.0 0.00 0.00 0.00 81 1016.4
20240517193502 57 90 4.0 9.0 0.00 0.00 0.00 82 1016.4
20240517193001 57 102 2.0 7.0 0.00 0.00 0.00 82 1016.6
20240517192600 58 30 1.0 8.0 0.00 0.00 0.00 83 1016.6
20240517192102 58 98 2.0 8.0 0.00 0.00 0.00 84 1016.6
20240517191603 58 94 2.0 9.0 0.00 0.00 0.00 82 1016.6
20240517191059 58 108 3.0 10.0 0.00 0.00 0.00 81 1016.5
20240517190601 58 71 3.0 10.0 0.00 0.00 0.00 83 1016.5
20240517190101 56 11 3.0 7.0 0.00 0.00 0.00 85 1016.4
20240517185558 57 42 2.0 7.0 0.00 0.00 0.00 84 1016.3
20240517185058 58 159 2.0 11.0 0.00 0.00 0.00 81 1016.3
20240517184558 59 28 4.0 11.0 0.00 0.00 0.00 81 1016.3
20240517184057 58 66 4.0 11.0 0.00 0.00 0.00 82 1016.3
20240517183557 59 107 4.0 10.0 0.00 0.00 0.00 80 1016.3
20240517183059 59 136 4.0 10.0 0.00 0.00 0.00 79 1016.2
20240517182557 60 161 2.0 11.0 0.00 0.00 0.00 78 1016.0
20240517182058 60 88 3.0 11.0 0.00 0.00 0.00 79 1016.1
20240517181557 61 80 4.0 12.0 0.00 0.00 0.00 79 1016.1
20240517181058 61 84 3.0 12.0 0.00 0.00 0.00 81 1016.1
20240517180556 60 329 4.0 10.0 0.00 0.00 0.00 79 1016.0
20240517180057 60 152 2.0 13.0 0.00 0.00 0.00 78 1016.0
20240517175556 61 99 5.0 13.0 0.00 0.00 0.00 78 1016.0
20240517175057 61 93 2.0 10.0 0.00 0.00 0.00 79 1016.1
20240517174559 60 101 1.0 10.0 0.00 0.00 0.00 83 1016.2
20240517174057 59 144 4.0 9.0 0.00 0.00 0.00 80 1016.2
20240517173555 60 167 4.0 11.0 0.00 0.00 0.00 79 1016.2
20240517173056 60 84 4.0 11.0 0.00 0.00 0.00 79 1016.1
20240517172554 59 146 4.0 10.0 0.00 0.00 0.00 80 1016.2
20240517172056 60 127 6.0 10.0 0.00 0.00 0.00 78 1016.0
20240517171554 60 203 3.0 11.0 0.00 0.00 0.00 77 1016.0
20240517171054 61 160 4.0 11.0 0.00 0.00 0.00 78 1015.8
20240517170556 61 139 3.0 9.0 0.00 0.00 0.00 78 1015.9
20240517170053 62 128 2.0 8.0 0.00 0.00 0.00 78 1015.8
20240517165553 62 173 1.0 8.0 0.00 0.00 0.00 79 1015.8
20240517165055 62 153 4.0 8.0 0.00 0.00 0.00 75 1015.8
20240517164554 63 165 2.0 8.0 0.00 0.00 0.00 76 1016.0
20240517164052 63 183 3.0 7.0 0.00 0.00 0.00 73 1016.1
20240517163556 63 39 1.0 5.0 0.00 0.00 0.00 77 1016.0
20240517163053 62 350 1.0 7.0 0.00 0.00 0.00 76 1016.2
20240517162550 62 126 2.0 7.0 0.00 0.00 0.00 75 1016.2
20240517162053 63 66 1.0 9.0 0.00 0.00 0.00 75 1016.2
20240517161548 63 67 2.0 11.0 0.00 0.00 0.00 79 1016.2
20240517161048 63 106 3.0 12.0 0.00 0.00 0.00 78 1016.0
20240517160550 63 86 6.0 12.0 0.00 0.00 0.00 74 1016.0
20240517160048 63 158 2.0 8.0 0.00 0.00 0.00 73 1016.0
20240517155546 63 65 2.0 9.0 0.00 0.00 0.00 75 1016.1
20240517155047 63 115 3.0 9.0 0.00 0.00 0.00 75 1016.1
20240517154546 63 68 4.0 9.0 0.00 0.00 0.00 74 1016.1
20240517154046 64 111 2.0 9.0 0.00 0.00 0.00 76 1016.1
20240517153545 63 84 3.0 9.0 0.00 0.00 0.00 75 1016.1
20240517153059 63 157 3.0 9.0 0.00 0.00 0.00 76 1016.3
20240517152544 63 146 4.0 9.0 0.00 0.00 0.00 70 1016.3
20240517152044 64 108 2.0 7.0 0.00 0.00 0.00 69 1016.2
20240517151543 65 156 2.0 7.0 0.00 0.00 0.00 76 1016.1
20240517151047 65 78 1.0 6.0 0.00 0.00 0.00 73 1016.1
20240517150542 64 108 2.0 8.0 0.00 0.00 0.00 68 1016.1
20240517150047 64 77 2.0 8.0 0.00 0.00 0.00 70 1016.2
20240517145541 64 90 3.0 7.0 0.00 0.00 0.00 70 1016.2
20240517145042 64 31 2.0 5.0 0.00 0.00 0.00 73 1016.2
20240517144545 63 68 2.0 5.0 0.00 0.00 0.00 74 1016.2
20240517144042 63 39 1.0 6.0 0.00 0.00 0.00 74 1016.2
20240517143539 63 28 2.0 6.0 0.00 0.00 0.00 74 1016.3
20240517143038 63 40 3.0 5.0 0.00 0.00 0.00 77 1016.4
20240517142536 62 136 2.0 6.0 0.00 0.00 0.00 74 1016.5
20240517142036 62 65 2.0 4.0 0.00 0.00 0.00 76 1016.5
20240517141534 62 58 2.0 5.0 0.00 0.00 0.00 75 1016.5
20240517141033 62 14 3.0 7.0 0.00 0.00 0.00 76 1016.5
20240517140532 62 90 2.0 7.0 0.00 0.00 0.00 75 1016.5
20240517140041 62 74 1.0 7.0 0.00 0.00 0.00 79 1016.6
20240517135532 62 130 2.0 7.0 0.00 0.00 0.00 80 1016.7
20240517135031 63 15 0.0 8.0 0.00 0.00 0.00 79 1016.6
20240517134534 62 33 3.0 8.0 0.00 0.00 0.00 79 1016.6
20240517134031 61 20 4.0 7.0 0.00 0.00 0.00 80 1016.6
20240517133531 62 40 4.0 8.0 0.00 0.00 0.00 82 1016.6
20240517133028 62 39 3.0 10.0 0.00 0.00 0.00 81 1016.6
20240517132527 61 342 2.0 12.0 0.00 0.00 0.00 80 1016.6
20240517132027 61 28 4.0 12.0 0.00 0.00 0.00 81 1016.7
20240517131526 62 63 4.0 9.0 0.00 0.00 0.00 80 1016.8
20240517131024 61 26 2.0 9.0 0.00 0.00 0.00 85 1016.7
20240517130523 60 34 3.0 9.0 0.00 0.00 0.00 85 1016.7
20240517130022 59 34 4.0 7.0 0.00 0.00 0.00 86 1016.6
20240517125521 59 38 1.0 8.0 0.00 0.00 0.00 87 1016.7
20240517125020 58 30 1.0 5.0 0.00 0.00 0.00 88 1016.7
20240517124519 58 34 1.0 5.0 0.00 0.00 0.00 90 1016.5
20240517124016 57 355 2.0 4.0 0.00 0.00 0.00 90 1016.7
20240517123515 57 355 1.0 3.0 0.00 0.00 0.00 90 1016.7
20240517123015 57 355 1.0 4.0 0.00 0.00 0.00 90 1016.7
20240517122511 57 355 1.0 4.0 0.00 0.00 0.00 90 1016.6
20240517122011 57 348 1.0 3.0 0.00 0.00 0.00 90 1016.5
20240517121511 57 350 2.0 3.0 0.00 0.00 0.00 90 1016.4
20240517121010 56 350 1.0 3.0 0.00 0.00 0.00 90 1016.4
20240517120508 56 350 1.0 4.0 0.00 0.00 0.00 91 1016.4
20240517120008 56 350 2.0 4.0 0.00 0.00 0.00 90 1016.3
20240517115508 56 355 2.0 4.0 0.00 0.00 0.00 91 1016.1
20240517115006 56 350 2.0 4.0 0.00 0.00 0.00 91 1016.3
20240517114505 55 351 1.0 3.0 0.00 0.00 0.00 90 1016.2
20240517114005 55 342 1.0 3.0 0.00 0.00 0.00 91 1016.0
20240517113503 55 328 1.0 3.0 0.00 0.00 0.00 91 1016.0
20240517113003 55 309 0.0 4.0 0.00 0.00 0.00 91 1015.9
20240517112604 55 309 2.0 5.0 0.00 0.00 0.00 92 1015.8
20240517112100 54 306 2.0 5.0 0.00 0.00 0.00 91 1015.7
20240517111602 54 317 2.0 5.0 0.00 0.00 0.00 92 1015.6
20240517111057 54 313 2.0 4.0 0.00 0.00 0.00 92 1015.6
20240517110555 54 316 1.0 3.0 0.00 0.00 0.00 93 1015.5
20240517110054 53 315 1.0 3.0 0.00 0.00 0.00 93 1015.4
20240517105554 53 315 1.0 4.0 0.00 0.00 0.00 93 1015.3
20240517105053 53 315 2.0 4.0 0.00 0.00 0.00 93 1015.3
20240517104554 53 319 2.0 4.0 0.00 0.00 0.00 92 1015.1
20240517104051 53 319 2.0 4.0 0.00 0.00 0.00 93 1015.0
20240517103550 53 323 2.0 5.0 0.00 0.00 0.00 94 1014.9
20240517103049 53 312 3.0 5.0 0.00 0.00 0.00 94 1014.9
20240517102546 53 313 2.0 3.0 0.00 0.00 0.00 94 1014.9
20240517102046 53 312 0.0 2.0 0.00 0.00 0.00 94 1014.9
20240517101545 52 312 0.0 2.0 0.00 0.00 0.00 94 1014.8
20240517101043 52 312 0.0 2.0 0.00 0.00 0.00 94 1014.7
20240517100544 52 312 0.0 0.0 0.00 0.00 0.00 94 1014.5
20240517100051 52 312 0.0 1.0 0.00 0.00 0.00 94 1014.4
20240517095541 52 312 0.0 2.0 0.00 0.00 0.00 94 1014.4
20240517095040 51 312 0.0 3.0 0.00 0.00 0.00 94 1014.3
20240517094539 52 312 1.0 3.0 0.00 0.00 0.00 94 1014.2
20240517094038 52 315 1.0 3.0 0.00 0.00 0.00 94 1014.1
20240517093537 52 315 1.0 3.0 0.00 0.00 0.00 94 1014.0
20240517093046 52 315 0.0 4.0 0.00 0.00 0.00 95 1014.0
20240517092535 51 317 1.0 4.0 0.00 0.00 0.00 95 1014.0
20240517092034 51 329 2.0 4.0 0.00 0.00 0.00 95 1014.1
20240517091535 51 350 1.0 3.0 0.00 0.00 0.00 95 1013.9
20240517091034 51 355 1.0 2.0 0.00 0.00 0.00 95 1013.9
20240517090535 51 355 1.0 4.0 0.00 0.00 0.00 95 1013.7
20240517090041 51 355 2.0 4.0 0.00 0.00 0.00 95 1013.6
20240517085533 51 355 2.0 4.0 0.00 0.00 0.00 95 1013.6
20240517085033 51 5 0.0 2.0 0.00 0.00 0.00 95 1013.6
20240517084533 51 5 0.0 1.0 0.00 0.00 0.00 95 1013.7
20240517084032 51 5 0.0 1.0 0.00 0.00 0.00 96 1013.6
20240517083531 50 5 0.0 2.0 0.00 0.00 0.00 96 1013.8
20240517083034 50 5 0.0 2.0 0.00 0.00 0.00 95 1013.6
20240517082529 50 5 0.0 2.0 0.00 0.00 0.00 95 1013.6
20240517082029 49 5 0.0 1.0 0.00 0.00 0.00 96 1013.7
20240517081539 49 5 0.0 0.0 0.00 0.00 0.00 95 1013.7
20240517081029 49 5 0.0 0.0 0.00 0.00 0.00 95 1013.7
20240517080528 49 5 0.0 1.0 0.00 0.00 0.00 95 1013.8
20240517080028 49 5 0.0 1.0 0.00 0.00 0.00 95 1013.6
20240517075530 49 5 0.0 1.0 0.00 0.00 0.00 95 1013.7
20240517075028 49 5 0.0 0.0 0.00 0.00 0.00 95 1013.6
20240517074532 49 5 0.0 2.0 0.00 0.00 0.00 95 1013.6
20240517074028 49 5 0.0 2.0 0.00 0.00 0.00 95 1013.5
20240517073526 49 5 1.0 2.0 0.00 0.00 0.00 95 1013.5
20240517073026 49 5 0.0 2.0 0.00 0.00 0.00 94 1013.5
20240517072526 49 5 0.0 2.0 0.00 0.00 0.00 95 1013.6
20240517072026 49 5 0.0 1.0 0.00 0.00 0.00 94 1013.5
20240517071525 49 5 0.0 0.0 0.00 0.00 0.00 94 1013.5
20240517071028 49 5 0.0 1.0 0.00 0.00 0.00 94 1013.4
20240517070529 49 5 0.0 1.0 0.00 0.00 0.00 95 1013.5
20240517070043 49 5 0.0 1.0 0.00 0.00 0.00 94 1013.5
20240517065523 49 5 0.0 1.0 0.00 0.00 0.00 94 1013.6
20240517065023 49 5 0.0 2.0 0.00 0.00 0.00 94 1013.7
20240517064523 49 5 0.0 2.0 0.00 0.00 0.00 94 1013.7
20240517064023 49 5 0.0 2.0 0.00 0.00 0.00 94 1013.8
20240517063523 49 5 0.0 2.0 0.00 0.00 0.00 94 1013.8
20240517063025 49 5 0.0 1.0 0.00 0.00 0.00 94 1013.8
20240517062521 49 5 0.0 2.0 0.00 0.00 0.00 94 1013.6
20240517062020 49 5 0.0 2.0 0.00 0.00 0.00 94 1013.7
20240517061528 50 5 0.0 0.0 0.00 0.00 0.00 94 1013.8
20240517061022 50 5 0.0 2.0 0.00 0.00 0.00 94 1013.7
20240517060520 50 5 0.0 3.0 0.00 0.00 0.00 94 1013.8
20240517060020 50 5 1.0 3.0 0.00 0.00 0.00 94 1013.8
20240517055519 49 5 1.0 2.0 0.00 0.00 0.00 94 1013.9
20240517055019 49 5 0.0 3.0 0.00 0.00 0.00 94 1013.7
20240517054520 49 5 1.0 3.0 0.00 0.00 0.00 94 1013.8
20240517054018 49 5 1.0 3.0 0.00 0.00 0.00 93 1013.9
20240517053519 49 9 1.0 3.0 0.00 0.00 0.00 93 1013.8
20240517053028 49 10 0.0 2.0 0.00 0.00 0.00 93 1013.7
20240517052518 49 10 1.0 2.0 0.00 0.00 0.00 93 1013.9
20240517052020 49 11 1.0 3.0 0.00 0.00 0.00 93 1013.9
20240517051518 49 11 1.0 3.0 0.00 0.00 0.00 93 1013.9
20240517051016 50 13 1.0 3.0 0.00 0.00 0.00 93 1013.9
20240517050517 50 39 1.0 3.0 0.00 0.00 0.00 92 1014.0
20240517050017 50 47 1.0 3.0 0.00 0.00 0.00 92 1014.0
20240517045513 50 82 0.0 2.0 0.00 0.00 0.00 92 1014.1
20240517045012 50 96 0.0 1.0 0.00 0.00 0.00 92 1014.1
20240517044513 50 96 0.0 1.0 0.00 0.00 0.00 92 1014.0
20240517044012 50 96 0.0 1.0 0.00 0.00 0.00 92 1014.1
20240517043514 50 96 0.0 1.0 0.00 0.00 0.00 92 1014.1
20240517043011 50 96 0.0 1.0 0.00 0.00 0.00 91 1014.2
20240517042510 50 96 0.0 0.0 0.00 0.00 0.00 91 1014.2
20240517042009 50 96 0.0 0.0 0.00 0.00 0.00 91 1014.1
20240517041510 50 96 0.0 0.0 0.00 0.00 0.00 91 1014.2
20240517041008 50 96 0.0 0.0 0.00 0.00 0.00 91 1014.2
20240517040507 50 96 0.0 0.0 0.00 0.00 0.00 90 1014.2
20240517040107 50 96 0.0 0.0 0.00 0.00 0.00 91 1014.3